This demonstration page uses our WeatherBlox Daily Observations layout. Learn more.

Left ArrowRight Arrow

44.8408, -93.29828

Hourly Observations for December 7, 2022

Temp ( °F °C ) Dew Point ( °F °C ) Humidity (%) Winds ( mph kmh ) Pressure ( in mb ) Visibility ( mi km ) Precip ( " mm )
12:53 am 00:53 Mostly Cloudy 21 -6.1 16 -8.9 80 80 N 3 6 30.16 1021 10 16 0.00 0.00
1:53 am 01:53 Mostly Cloudy 22 -5.6 13 -10.6 68 68 N 14 22 30.20 1023 10 16 0.00 0.00
2:53 am 02:53 Mostly Cloudy 21 -6.1 11 -11.7 64 64 NNE 14 22 30.22 1023 10 16 0.00 0.00
3:53 am 03:53 Mostly Cloudy 20 -6.7 10 -12.2 65 65 NNE 9 15 30.24 1024 10 16 0.00 0.00
4:53 am 04:53 Cloudy 19 -7.2 10 -12.2 67 67 NNE 12 19 30.26 1025 10 16 0.00 0.00
5:53 am 05:53 Cloudy 19 -7.2 9 -12.8 64 64 NE 9 15 30.25 1025 10 16 0.00 0.00
6:53 am 06:53 Cloudy 18 -7.8 9 -12.8 67 67 NNE 13 20 30.28 1026 10 16 0.00 0.00
7:53 am 07:53 Cloudy 18 -7.8 8 -13.3 65 65 NNE 9 15 30.34 1028 10 16 0.00 0.00
8:24 am 08:24 Cloudy with Light Snow 17 -8.3 8 -13.3 67 67 N 9 15 30.41 1030 7 11 0.01 0.13
8:31 am 08:31 Cloudy with Light Snow 17 -8.3 9 -12.8 70 70 NNE 9 15 30.41 1030 2 3 0.01 0.13
8:45 am 08:45 Cloudy with Light Snow 17 -8.3 10 -12.2 73 73 N 8 13 30.42 1030 1 2 0.01 0.13
8:53 am 08:53 Partly Cloudy with Isolated Snow Showers 17 -8.3 10 -12.2 73 73 NNE 9 15 30.38 1029 1 1 0.01 0.25
9:05 am 09:05 Partly Cloudy with Isolated Snow Showers 16 -8.9 11 -11.7 80 80 NNE 9 15 30.43 1031 1 1 0.01 0.13
9:33 am 09:33 Cloudy with Light Snow 16 -8.9 11 -11.7 80 80 N 10 17 30.44 1031 1 2 0.01 0.25
9:49 am 09:49 Cloudy with Light Snow 16 -9 10 -12 79 79 N 13 20 30.45 1031 2 3 0.02 0.51
9:53 am 09:53 Cloudy with Light Snow 16 -8.9 11 -11.7 80 80 N 10 17 30.42 1030 2 3 0.02 0.51
10:01 am 10:01 Cloudy with Light Snow 16 -8.9 11 -11.7 80 80 N 13 20 30.46 1032 2 2 0.01 0.13
10:10 am 10:10 Cloudy with Light Snow 16 -8.9 11 -11.7 80 80 NNE 10 17 30.46 1032 2 3 0.01 0.13
10:19 am 10:19 Mostly Cloudy with Light Snow 16 -8.9 10 -12.2 77 77 N 14 22 30.47 1032 7 11 0.01 0.13
10:32 am 10:32 Partly Cloudy 16 -8.9 10 -12.2 77 77 NNE 13 20 30.47 1032 9 14 0.01 0.13
10:53 am 10:53 Partly Cloudy 16 -8.9 9 -12.8 73 73 NE 15 24 30.45 1031 10 16 0.01 0.13
11:53 am 11:53 Sunny 17 -8.3 9 -12.8 70 70 N 9 15 30.44 1031 10 16 0.01 0.25
12:53 pm 12:53 Sunny 17 -8.3 8 -13.3 67 67 N 10 17 30.45 1031 10 16 0.00 0.00
1:53 pm 13:53 Sunny 19 -7.2 8 -13.3 62 62 N 9 15 30.44 1031 10 16 0.00 0.00
2:53 pm 14:53 Sunny 19 -7.2 7 -13.9 59 59 N 9 15 30.47 1032 10 16 0.00 0.00
3:53 pm 15:53 Sunny 18 -7.8 7 -13.9 61 61 N 8 13 30.48 1032 10 16 0.00 0.00
4:53 pm 16:53 Clear 16 -8.9 6 -14.4 64 64 NNE 7 11 30.49 1033 10 16 0.00 0.00
5:53 pm 17:53 Clear 14 -10 5 -15 67 67 ENE 5 7 30.49 1033 10 16 0.00 0.00
6:53 pm 18:53 Clear 14 -10 5 -15 67 67 NE 3 6 30.51 1033 10 16 0.00 0.00
7:53 pm 19:53 Clear 14 -10 5 -15 67 67 N 3 6 30.51 1033 10 16 0.00 0.00
8:53 pm 20:53 Clear 13 -10.6 4 -15.6 67 67 NNE 6 9 30.52 1034 10 16 0.00 0.00
9:53 pm 21:53 Clear 13 -10.6 5 -15 70 70 Calm 30.51 1033 10 16 0.00 0.00
10:53 pm 22:53 Clear 11 -11.7 4 -15.6 73 73 NNE 3 6 30.52 1033 10 16 0.00 0.00
11:53 pm 23:53 Clear 11 -11.7 5 -15 76 76 E 3 6 30.50 1033 10 16 0.00 0.00

Powered by AerisWeather